KF5DKO Weather Reports


time (UTC)temp
C
wind
direction
speed
KPH
gust
KPH
rain 1hr
cm
rain 24hr
cm
rain mn
cm
humidity
%
barometer
mb
20260505071009 13 148 0.0 0.0 0.00 0.00 0.00 97 1011.2
20260505070511 13 148 0.0 0.0 0.00 0.00 0.00 97 1011.2
20260505070008 13 148 0.0 0.0 0.00 0.00 0.00 97 1011.2
20260505065509 13 148 0.0 0.0 0.00 0.00 0.00 97 1011.5
20260505065006 13 148 0.0 0.0 0.00 0.00 0.00 97 1011.5
20260505064506 14 148 0.0 0.0 0.00 0.00 0.00 97 1011.5
20260505064006 14 148 0.0 0.0 0.00 0.00 0.00 97 1011.7
20260505063506 14 148 0.0 0.0 0.00 0.00 0.00 97 1011.7
20260505063005 14 148 0.0 0.0 0.00 0.00 0.00 97 1011.7
20260505062510 14 148 0.0 0.0 0.00 0.00 0.00 97 1012.2
20260505062008 14 148 0.0 0.0 0.00 0.00 0.00 96 1012.2
20260505061508 14 148 0.0 0.0 0.00 0.00 0.00 96 1012.2
20260505061003 14 148 0.0 0.0 0.00 0.00 0.00 96 1012.5
20260505060503 14 148 0.0 0.0 0.00 0.00 0.00 96 1012.5
20260505060002 14 148 0.0 0.0 0.00 0.00 0.00 96 1012.5
20260505055502 14 148 0.0 0.0 0.00 0.00 0.00 96 1012.2
20260505055002 14 148 0.0 0.0 0.00 0.00 0.00 96 1012.2
20260505054502 14 148 0.0 0.0 0.00 0.00 0.00 96 1012.2
20260505054001 14 148 0.0 0.0 0.00 0.00 0.00 96 1012.3
20260505053502 14 148 0.0 0.0 0.00 0.00 0.00 96 1012.3
20260505053001 14 148 0.0 0.0 0.00 0.00 0.00 96 1012.3
20260505052501 14 148 0.0 0.0 0.00 0.00 0.00 96 1012.1
20260505052004 14 148 0.0 0.0 0.00 0.00 0.00 95 1012.1
20260505051614 14 148 0.0 0.0 0.00 0.00 0.00 95 1012.1
20260505051100 14 148 0.0 0.0 0.00 0.00 0.00 95 1012.2
20260505050559 14 148 0.0 0.0 0.00 0.00 0.00 95 1012.2
20260505041600 15 148 0.0 0.0 0.00 0.00 0.00 93 1012.3
20260505041059 15 148 0.0 0.0 0.00 0.00 0.00 93 1012.4
20260505040558 15 148 0.0 1.6 0.00 0.00 0.00 93 1012.4
20260505040057 15 148 0.0 1.6 0.00 0.00 0.00 92 1012.4
20260505035557 15 148 0.0 0.0 0.00 0.00 0.00 92 1012.6
20260505035056 15 148 0.0 0.0 0.00 0.00 0.00 92 1012.6
20260505034556 15 148 0.0 0.0 0.00 0.00 0.00 92 1012.6
20260505034057 15 148 0.0 0.0 0.00 0.00 0.00 91 1012.6
20260505033556 15 148 0.0 0.0 0.00 0.00 0.00 91 1012.6
20260505033056 15 148 0.0 0.0 0.00 0.00 0.00 91 1012.6
20260505032556 15 148 0.0 0.0 0.00 0.00 0.00 91 1012.6
20260505032056 16 148 0.0 1.6 0.00 0.00 0.00 90 1012.6
20260505031559 16 148 0.0 3.2 0.00 0.00 0.00 90 1012.6
20260505031056 16 148 0.0 3.2 0.00 0.00 0.00 90 1012.3
20260505030559 16 148 0.0 3.2 0.00 0.00 0.00 90 1012.3
20260505030055 16 148 0.0 1.6 0.00 0.00 0.00 89 1012.3
20260505025555 16 148 0.0 4.8 0.00 0.00 0.00 89 1012.5
20260505025054 16 148 0.0 4.8 0.00 0.00 0.00 89 1012.5
20260505024556 16 148 0.0 3.2 0.00 0.00 0.00 88 1012.5
20260505024055 16 148 0.0 3.2 0.00 0.00 0.00 88 1012.6
20260505023555 16 148 0.0 4.8 0.00 0.00 0.00 88 1012.6
20260505023056 16 148 1.6 4.8 0.00 0.00 0.00 88 1012.6
20260505022555 16 148 0.0 4.8 0.00 0.00 0.00 87 1012.5
20260505022054 16 148 0.0 4.8 0.00 0.00 0.00 87 1012.5
20260505021554 16 148 0.0 3.2 0.00 0.00 0.00 86 1012.5
20260505021058 17 148 0.0 3.2 0.00 0.00 0.00 86 1012.2
20260505020554 17 148 0.0 3.2 0.00 0.00 0.00 85 1012.2
20260505015555 17 148 0.0 4.8 0.00 0.00 0.00 83 1012.2
20260505015056 17 148 0.0 4.8 0.00 0.00 0.00 82 1012.2
20260505014555 17 148 1.6 6.4 0.00 0.00 0.00 82 1012.2
20260505014055 18 148 1.6 6.4 0.00 0.00 0.00 81 1012.0
20260505013554 18 148 1.6 6.4 0.00 0.00 0.00 81 1012.0
20260505013103 18 148 1.6 6.4 0.00 0.00 0.00 80 1012.0
20260505012554 18 148 0.0 6.4 0.00 0.00 0.00 79 1011.8
20260505012054 18 148 1.6 6.4 0.00 0.00 0.00 78 1011.8
20260505011554 19 148 0.0 3.2 0.00 0.00 0.00 77 1011.8
20260505011054 20 148 0.0 3.2 0.00 0.00 0.00 75 1011.9
20260505010555 20 148 0.0 3.2 0.00 0.00 0.00 74 1011.9
20260505010109 20 148 0.0 6.4 0.00 0.00 0.00 71 1011.9
20260505005551 20 148 1.6 9.7 0.00 0.00 0.00 70 1012.1
20260505005051 20 148 1.6 9.7 0.00 0.00 0.00 69 1012.1
20260505004551 21 144 1.6 8.0 0.00 0.00 0.00 68 1012.1
20260505004050 21 147 3.2 8.0 0.00 0.00 0.00 68 1012.2
20260505003551 21 150 0.0 8.0 0.00 0.00 0.00 67 1012.2
20260505003055 21 145 1.6 12.9 0.00 0.00 0.00 67 1012.2
20260505002550 21 138 4.8 12.9 0.00 0.00 0.00 65 1012.3
20260505002050 22 144 3.2 9.7 0.00 0.00 0.00 65 1012.3
20260505001550 22 151 1.6 12.9 0.00 0.00 0.00 64 1012.3
20260505001049 22 150 4.8 12.9 0.00 0.00 0.00 64 1012.4
20260505000554 22 151 3.2 11.3 0.00 0.00 0.00 62 1012.4
20260505000049 22 158 3.2 9.7 0.00 0.00 0.00 61 1012.4
20260504235549 23 165 3.2 11.3 0.00 0.00 0.00 60 1012.3
20260504235049 23 185 4.8 11.3 0.00 0.00 0.00 59 1012.3
20260504234548 23 171 3.2 9.7 0.00 0.00 0.00 59 1012.3
20260504234048 23 196 3.2 9.7 0.00 0.00 0.00 58 1012.5
20260504233548 23 153 3.2 11.3 0.00 0.00 0.00 59 1012.5
20260504233104 23 218 8.0 11.3 0.00 0.00 0.00 58 1012.5
20260504232548 23 180 6.4 14.5 0.00 0.00 0.00 57 1012.7
20260504232047 23 165 6.4 14.5 0.00 0.00 0.00 56 1012.7
20260504231549 23 202 8.0 16.1 0.00 0.00 0.00 56 1012.7
20260504231048 23 182 4.8 16.1 0.00 0.00 0.00 57 1012.8
20260504230548 23 163 4.8 16.1 0.00 0.00 0.00 56 1012.8
20260504230054 23 187 8.0 12.9 0.00 0.00 0.00 56 1012.8
20260504225545 24 168 6.4 12.9 0.00 0.00 0.00 55 1012.8
20260504225045 24 186 6.4 16.1 0.00 0.00 0.00 54 1012.8
20260504224550 24 202 3.2 16.1 0.00 0.00 0.00 56 1012.8
20260504224045 24 188 6.4 16.1 0.00 0.00 0.00 52 1013.1
20260504223545 25 185 4.8 16.1 0.00 0.00 0.00 51 1013.1
20260504223045 25 198 6.4 11.3 0.00 0.00 0.00 52 1013.1
20260504222545 25 240 3.2 11.3 0.00 0.00 0.00 53 1013.1
20260504222047 25 232 4.8 17.7 0.00 0.00 0.00 51 1013.1
20260504221544 25 198 8.0 17.7 0.00 0.00 0.00 51 1013.1
20260504221044 25 246 4.8 14.5 0.00 0.00 0.00 50 1013.3
20260504220545 25 185 6.4 14.5 0.00 0.00 0.00 50 1013.3
20260504220043 25 157 6.4 16.1 0.00 0.00 0.00 50 1013.3
20260504215547 25 221 4.8 16.1 0.00 0.00 0.00 50 1013.3
20260504215042 25 185 4.8 12.9 0.00 0.00 0.00 49 1013.3
20260504214545 25 137 4.8 17.7 0.00 0.00 0.00 49 1013.3
20260504214045 25 184 3.2 17.7 0.00 0.00 0.00 52 1013.4
20260504213545 25 228 4.8 11.3 0.00 0.00 0.00 50 1013.4
20260504213042 25 194 1.6 12.9 0.00 0.00 0.00 47 1013.4
20260504212542 25 194 3.2 12.9 0.00 0.00 0.00 49 1013.5
20260504212045 25 158 6.4 17.7 0.00 0.00 0.00 51 1013.5
20260504211541 25 132 4.8 17.7 0.00 0.00 0.00 51 1013.5
20260504211041 25 211 3.2 14.5 0.00 0.00 0.00 51 1013.7
20260504210545 25 129 8.0 14.5 0.00 0.00 0.00 49 1013.7
20260504210044 25 189 6.4 16.1 0.00 0.00 0.00 47 1013.7
20260504205540 25 146 6.4 16.1 0.00 0.00 0.00 48 1013.9
20260504205042 25 193 6.4 16.1 0.00 0.00 0.00 49 1013.9
20260504204547 25 146 6.4 12.9 0.00 0.00 0.00 46 1013.9
20260504204039 25 175 6.4 20.9 0.00 0.00 0.00 47 1013.9
20260504203540 25 209 4.8 14.5 0.00 0.00 0.00 47 1013.9
20260504203053 25 202 8.0 14.5 0.00 0.00 0.00 49 1013.9
20260504202539 25 205 8.0 14.5 0.00 0.00 0.00 47 1014.3
20260504202038 25 196 4.8 20.9 0.00 0.00 0.00 47 1014.3
20260504201537 25 194 8.0 20.9 0.00 0.00 0.00 47 1014.3
20260504201037 25 172 3.2 19.3 0.00 0.00 0.00 44 1014.5
20260504200537 25 146 8.0 19.3 0.00 0.00 0.00 47 1014.5
20260504200036 25 179 4.8 12.9 0.00 0.00 0.00 48 1014.5
20260504195535 25 215 4.8 12.9 0.00 0.00 0.00 44 1014.9
20260504195035 25 201 6.4 12.9 0.00 0.00 0.00 44 1014.9
20260504194536 25 138 8.0 19.3 0.00 0.00 0.00 46 1014.9
20260504194036 25 126 8.0 20.9 0.00 0.00 0.00 47 1015.1
20260504193535 25 161 9.7 20.9 0.00 0.00 0.00 48 1015.1
20260504193034 25 212 4.8 16.1 0.00 0.00 0.00 44 1015.1
20260504192532 25 204 4.8 22.5 0.00 0.00 0.00 46 1015.2
20260504192032 25 253 8.0 22.5 0.00 0.00 0.00 46 1015.2
20260504191532 25 198 3.2 16.1 0.00 0.00 0.00 50 1015.2
20260504191032 25 198 8.0 16.1 0.00 0.00 0.00 51 1015.3
20260504190531 25 184 4.8 16.1 0.00 0.00 0.00 55 1015.3
20260504190033 25 157 4.8 17.7 0.00 0.00 0.00 50 1015.3
20260504185532 25 169 6.4 17.7 0.00 0.00 0.00 49 1015.4
20260504185029 25 159 4.8 12.9 0.00 0.00 0.00 49 1015.4
20260504184533 25 209 0.0 11.3 0.00 0.00 0.00 51 1015.4
20260504184029 25 182 6.4 16.1 0.00 0.00 0.00 46 1015.4
20260504183529 25 227 8.0 16.1 0.00 0.00 0.00 48 1015.4
20260504183033 25 161 3.2 16.1 0.00 0.00 0.00 55 1015.4
20260504182531 25 196 4.8 16.1 0.00 0.00 0.00 51 1015.9
20260504182031 25 202 0.0 16.1 0.00 0.00 0.00 48 1015.9
20260504181527 25 202 6.4 16.1 0.00 0.00 0.00 48 1015.9
20260504181026 25 213 3.2 14.5 0.00 0.00 0.00 49 1016.0
20260504180529 25 250 6.4 16.1 0.00 0.00 0.00 48 1016.0
20260504180024 25 236 4.8 19.3 0.00 0.00 0.00 49 1016.0
20260504175523 25 198 8.0 19.3 0.00 0.00 0.00 51 1016.0
20260504175023 25 151 8.0 17.7 0.00 0.00 0.00 49 1016.0
20260504174523 25 167 9.7 17.7 0.00 0.00 0.00 51 1016.0
20260504174023 25 248 8.0 12.9 0.00 0.00 0.00 48 1016.2
20260504173522 25 177 4.8 19.3 0.00 0.00 0.00 49 1016.2
20260504173021 25 188 9.7 19.3 0.00 0.00 0.00 46 1016.2
20260504172521 25 207 4.8 16.1 0.00 0.00 0.00 50 1016.0
20260504172021 25 212 6.4 16.1 0.00 0.00 0.00 47 1016.0
20260504171520 25 244 8.0 17.7 0.00 0.00 0.00 49 1016.0
20260504171023 25 192 8.0 17.7 0.00 0.00 0.00 48 1016.2
20260504170518 24 203 3.2 17.7 0.00 0.00 0.00 51 1016.2
20260504151010 22 113 4.8 19.3 0.00 0.00 0.00 55 1016.6
20260504150504 22 123 9.7 20.9 0.00 0.00 0.00 52 1016.6
20260504141056 22 136 0.0 0.0 0.00 0.00 0.00 68 1016.9
20260504140555 21 133 0.0 0.0 0.00 0.00 0.00 74 1016.9
20260504130538 16 129 0.0 0.0 0.00 0.00 0.00 100 1016.9
20260504110523 11 129 0.0 0.0 0.00 0.00 0.00 98 1016.0
20260504100521 11 129 0.0 0.0 0.00 0.00 0.00 99 1016.0
20260504081514 11 129 0.0 0.0 0.00 0.00 0.00 97 1016.4
20260504081014 11 129 0.0 0.0 0.00 0.00 0.00 97 1016.5
20260504080514 11 129 0.0 0.0 0.00 0.00 0.00 97 1016.5